Regional Weather Roundup
Issued by NWS

Home | Current Version | Previous Version | Text Only | Print | Product List | Glossary On
Versions: 1 2 3 4 5 6 7 8 9 10 11 12 13 14 15 16 17 18 19 20 21 22 23 24 25 26 27 28 29 30 31 32 33 34 35 36 37 38 39 40 41 42 43 44 45 46 47 48 49 50
000
ASUS43 KTOP 190908
RWRKS

WEATHER ROUNDUP FOR KANSAS
NATIONAL WEATHER SERVICE GOODLAND KS
400 AM CDT THU OCT 19 2017

NOTE:  "FAIR" INDICATES FEW OR NO CLOUDS BELOW 12,000 FEET WITH NO
SIGNIFICANT WEATHER AND/OR OBSTRUCTIONS TO VISIBILITY.

KSZ001>006-013>018-027>032-041>047-191000-
NORTHWEST KANSAS

CITY           SKY/WX    TMP DP  RH WIND       PRES   REMARKS
GOODLAND       CLOUDY    46  34  62 S5        30.08F
HAYS           CLOUDY    44  38  79 NW6       30.04F
HILL CITY      CLEAR     42  37  82 NW5       30.06F
RUSSELL        CLEAR     47  41  80 N3        30.03S
$$

KSZ061>065-074>080-084>089-191000-
SOUTHWEST KANSAS

CITY           SKY/WX    TMP DP  RH WIND       PRES   REMARKS
DODGE CITY     CLEAR     47  43  86 CALM      30.06S
ELKHART          N/A     57  45  64 S6          N/A
GARDEN CITY    CLEAR     49  38  65 E7        30.06S
GREAT BEND     CLEAR     49  45  86 W5        30.04S
LIBERAL        CLOUDY    45  41  86 MISG        N/A
PRATT          CLEAR     50  44  79 S3        30.05F
$$

KSZ066>073-081>083-090>101-191000-
SOUTHEAST KANSAS

CITY           SKY/WX    TMP DP  RH WIND       PRES   REMARKS
CHANUTE        CLEAR     53  47  79 S8        30.10S
COFFEYVILLE    CLEAR     50  47  89 SE3       30.11R
HUTCHINSON     CLEAR     50  46  86 CALM      30.05S
MEDICINE LODGE   N/A     51  45  79 E5        30.05F
NEWTON         CLEAR     54  48  80 S9        30.06S
PARSONS        CLEAR     52  47  83 S3        30.12S
WICHITA INTL   CLEAR     50  47  89 S7        30.06S
WICHITA JABRA  CLEAR     56  49  77 S9        30.06S
WICHITA MCCONL CLEAR     53  46  78 S9        30.06F
WINFIELD       CLEAR     54  48  80 SE6       30.09S
$$

KSZ007>012-019>026-033>040-048>060-102>105-191000-
NORTHEAST KANSAS

CITY           SKY/WX    TMP DP  RH WIND       PRES   REMARKS
CONCORDIA      CLEAR     47  45  93 CALM      30.03S
EMPORIA        CLEAR     53  47  79 S8        30.07R
LAWRENCE       CLEAR     47  47 100 CALM      30.08R
MANHATTAN      CLEAR     45  45 100 CALM      30.05S
MARYSVILLE     CLEAR     50  46  87 SE6       30.03F
OLATHE IND     CLEAR     50  47  89 S5        30.09R
OLATHE EXE     CLEAR     53  48  83 S5        30.08S
SALINA         CLEAR     53  48  83 CALM      30.04S
TOPEKA BILLARD CLEAR     50  49  96 CALM      30.06S
TOPEKA FORBES  CLEAR     52  48  86 S3        30.06S
$$




USA.gov is the U.S. government's official web portal to all federal, state and local government web resources and services.